sat.trackr.live / text

‹ back to catalog

STARLINK-31514

NORAD 59187 · 2024-045K

PAYLOAD ACTIVE UNKNOWN

§ Identity

Operator
Country
US
Launch date
2024-03-10
Launch site
AFETR
Launch vehicle
Mass (kg)
RCS (m²)

Purposes: comms

External: N2YO · Heavens-Above · Gunter

§ Orbital elements

Epoch: 2026-05-25T00:24:17.178336Z

Period
94.27 min
Inclination
43.0026°
Eccentricity
0.0001200
Mean motion
15.27588535 rev/d
Perigee alt
482.2 km
Apogee alt
483.8 km
Semi-major
6,861.2 km
B*
9.6138e-7
RAAN
21.5759°
Arg perigee
276.7774°
Mean anomaly
83.2941°
Rev number
12,483

§ Raw data

STARLINK-315141 59187U 24045K   26145.01686549 -.00000236  00000+0  96138-6 0  99962 59187  43.0026  21.5759 0001200 276.7774  83.2941 15.27588535124833

JSON: /api/v1/satellites/59187 · /tle

For live sub-satellite position, see the globe view (requires WebGL).

§ Visibility from observer

Set your observer location to see the next 7 days of passes ≥ 10°. The values pass through the URL so the page stays shareable.

No JS? Fill the form by hand. The geolocation button needs JavaScript.